Simultaneous Nadir Overpasses (SNOs) Predictions

Prediction of SNOs between NOAA-19 and TERRA Satellite Orbit:

Table of predicted SNOs for the next 14.0 days since TLE Epoch: 2/3/2024
Index Date (NOAA-19) Time (NOAA-19) Lat,Lon (NOAA-19) SZA (NOAA-19 ) Date (TERRA) Time (TERRA) Lat,Lon (TERRA) SZA (TERRA ) Distance(km) Time Diff (sec)
1 02/04/2024 16:43:43 80.34, -46.41 97.14 02/04/2024 16:44:27 80.33, -46.58 97.14 3.24 44
2 02/04/2024 17:34:44 -80.37, 121.35 82.81 02/04/2024 17:33:48 -80.38, 121.50 82.81 2.80 56
3 02/06/2024 20:33:58 -80.32, 75.72 83.56 02/06/2024 20:34:05 -80.32, 75.88 83.55 3.12 7
4 02/08/2024 23:33:11 -80.28, 30.37 84.30 02/08/2024 23:34:21 -80.29, 30.48 84.27 2.26 70
5 02/09/2024 00:24:05 80.34,-161.46 95.81 02/09/2024 00:23:40 80.34,-161.41 95.80 0.98 25
6 02/11/2024 03:23:19 80.28, 152.97 95.03 02/11/2024 03:23:56 80.29, 153.06 95.04 1.65 37
7 02/11/2024 04:14:17 -80.35, -38.75 84.87 02/11/2024 04:13:17 -80.34, -38.77 84.89 0.77 60
8 02/13/2024 07:13:31 -80.28, -84.52 85.69 02/13/2024 07:13:33 -80.29, -84.37 85.68 2.86 2
9 02/15/2024 10:12:43 -80.25,-129.69 86.45 02/15/2024 10:13:48 -80.25,-129.77 86.45 1.48 65



Historial Predications of SNOs between NOAA-19 and TERRA
